EW3176 Weather Reports


Display with metric or nautical units.
time (UTC)temp
F
wind
direction
speed
MPH
gust
MPH
rain 1hr
in
rain 24hr
in
rain mn
in
humidity
%
barometer
mb
20260509171521 75 45 1.0 6.0 0.00 0.00 0.00 62 1014.9
20260509170541 75 45 1.0 4.0 0.00 0.00 0.00 62 1014.9
20260509165521 74 90 1.0 4.0 0.00 0.00 0.00 63 1015.2
20260509164521 74 45 1.0 6.0 0.00 0.00 0.00 63 1015.3
20260509163521 74 45 3.0 8.0 0.00 0.00 0.00 61 1015.3
20260509162521 75 0.0 3.0 0.00 0.00 0.00 62 1015.2
20260509161521 74 225 1.0 4.0 0.00 0.00 0.00 63 1015.2
20260509160521 73 45 2.0 8.0 0.00 0.00 0.00 65 1015.3
20260509155521 73 45 1.0 4.0 0.00 0.00 0.00 64 1015.4
20260509154521 74 248 1.0 5.0 0.00 0.00 0.00 63 1015.4
20260509153521 73 45 1.0 7.0 0.00 0.00 0.00 64 1015.4
20260509152521 72 45 1.0 3.0 0.00 0.00 0.00 67 1015.3
20260509151521 71 45 1.0 6.0 0.00 0.00 0.00 65 1015.0
20260509150521 70 45 1.0 6.0 0.00 0.00 0.00 67 1015.6
20260509145521 70 45 1.0 4.0 0.00 0.00 0.00 67 1016.0
20260509144523 70 225 1.0 3.0 0.00 0.00 0.00 67 1016.1
20260509143521 70 68 2.0 8.0 0.00 0.00 0.00 67 1016.0
20260509142524 70 0.0 2.0 0.00 0.00 0.00 67 1016.0
20260509141647 70 45 1.0 5.0 0.00 0.00 0.00 70 1016.3
20260509140521 69 0.0 2.0 0.00 0.00 0.00 73 1016.7
20260509135521 67 0.0 3.0 0.00 0.00 0.00 76 1016.9
20260509134521 67 0.0 3.0 0.00 0.00 0.00 76 1016.9
20260509133521 67 0.0 3.0 0.00 0.00 0.00 76 1016.9
20260509132522 66 45 1.0 4.0 0.00 0.00 0.00 78 1016.9
20260509131521 65 45 1.0 5.0 0.00 0.00 0.00 78 1017.0
20260509130520 64 0.0 1.0 0.00 0.00 0.00 81 1017.0
20260509125521 63 0.0 2.0 0.00 0.00 0.00 82 1016.9
20260509124521 63 0.0 1.0 0.00 0.00 0.00 82 1017.0
20260509123521 63 0.0 2.0 0.00 0.00 0.00 83 1016.8
20260509122521 62 0.0 1.0 0.00 0.00 0.00 87 1016.6
20260509121541 60 45 1.0 4.0 0.00 0.00 0.00 88 1016.3
20260509120541 58 0.0 2.0 0.00 0.00 0.00 92 1016.5
20260509115520 56 0.0 1.0 0.00 0.00 0.00 94 1016.8
20260509114521 55 0.0 1.0 0.00 0.00 0.00 95 1017.1
20260509113520 55 0.0 0.0 0.00 0.00 0.00 96 1017.1
20260509112521 54 0.0 0.0 0.00 0.00 0.00 97 1016.7
20260509111521 53 0.0 0.0 0.00 0.00 0.00 97 1016.4
20260509110540 53 0.0 0.0 0.00 0.00 0.00 96 1016.4
20260509105520 52 0.0 0.0 0.00 0.00 0.00 96 1016.3
20260509104521 52 0.0 0.0 0.00 0.00 0.00 95 1016.1
20260509103520 52 0.0 0.0 0.00 0.00 0.00 95 1015.8
20260509102520 52 0.0 0.0 0.00 0.00 0.00 94 1015.8
20260509101522 52 0.0 0.0 0.00 0.00 0.00 94 1016.1
20260509100521 52 0.0 0.0 0.00 0.00 0.00 94 1016.0
20260509095540 53 0.0 0.0 0.00 0.00 0.00 94 1015.8
20260509094520 53 0.0 0.0 0.00 0.00 0.00 94 1015.8
20260509093522 53 0.0 0.0 0.00 0.00 0.00 94 1016.2
20260509092521 53 0.0 0.0 0.00 0.00 0.00 93 1016.2
20260509091520 53 0.0 0.0 0.00 0.00 0.00 93 1016.1
20260509090522 54 0.0 0.0 0.00 0.00 0.00 92 1016.2
20260509085522 54 0.0 0.0 0.00 0.00 0.00 92 1016.3
20260509084543 54 0.0 0.0 0.00 0.00 0.00 92 1016.5
20260509083522 54 0.0 0.0 0.00 0.00 0.00 92 1016.6
20260509082522 54 0.0 0.0 0.00 0.00 0.00 91 1016.7
20260509081541 54 0.0 0.0 0.00 0.00 0.00 91 1016.8
20260509080542 54 0.0 0.0 0.00 0.00 0.00 90 1016.8
20260509075522 55 0.0 0.0 0.00 0.00 0.00 89 1016.7
20260509074522 55 0.0 0.0 0.00 0.00 0.00 88 1016.5
20260509073520 55 0.0 0.0 0.00 0.00 0.00 87 1016.7
20260509072522 56 0.0 0.0 0.00 0.00 0.00 87 1016.7
20260509071543 56 0.0 0.0 0.00 0.00 0.00 86 1016.8
20260509070522 56 0.0 0.0 0.00 0.00 0.00 85 1016.7
20260509065522 56 0.0 0.0 0.00 0.00 0.00 84 1016.8
20260509064522 57 0.0 0.0 0.00 0.00 0.00 83 1016.9
20260509063522 57 0.0 0.0 0.00 0.00 0.00 83 1017.1
20260509062522 57 0.0 0.0 0.00 0.00 0.00 82 1017.2
20260509061522 57 0.0 1.0 0.00 0.00 0.00 81 1017.5
20260509060522 57 0.0 0.0 0.00 0.00 0.00 80 1017.6
20260509060148 57 0.0 1.0 0.00 0.00 0.00 79 1017.6
20260509055042 58 0.0 0.0 0.00 0.00 0.00 78 1017.7
20260509054022 58 0.0 1.0 0.00 0.00 0.00 77 1017.8
20260509053022 58 0.0 0.0 0.00 0.00 0.00 76 1018.1
20260509052022 58 0.0 0.0 0.00 0.00 0.00 75 1018.2
20260509051022 58 0.0 0.0 0.00 0.00 0.00 74 1018.3
20260509050042 59 0.0 0.0 0.00 0.00 0.00 73 1018.5
20260509045042 59 0.0 1.0 0.00 0.00 0.00 72 1018.4
20260509044042 59 0.0 1.0 0.00 0.00 0.00 71 1018.1
20260509043022 59 0.0 1.0 0.00 0.00 0.00 71 1018.0
20260509042022 59 0.0 1.0 0.00 0.00 0.00 70 1017.9
20260509041042 60 0.0 1.0 0.00 0.00 0.00 69 1017.8
20260509040024 60 0.0 0.0 0.00 0.00 0.00 69 1017.9
20260509035021 60 0.0 1.0 0.00 0.00 0.00 68 1017.8
20260509034020 60 0.0 0.0 0.00 0.00 0.00 69 1017.8
20260509033021 59 0.0 0.0 0.00 0.00 0.00 69 1018.1
20260509032042 59 0.0 0.0 0.00 0.00 0.00 70 1018.0
20260509031021 59 0.0 0.0 0.00 0.00 0.00 70 1018.0
20260509030020 60 0.0 0.0 0.00 0.00 0.00 69 1018.1
20260509025020 60 0.0 0.0 0.00 0.00 0.00 68 1018.2
20260509024521 60 0.0 0.0 0.00 0.00 0.00 67 1018.5
20260509023521 60 0.0 0.0 0.00 0.00 0.00 66 1018.6
20260509022520 60 0.0 0.0 0.00 0.00 0.00 67 1018.6
20260509021541 60 0.0 0.0 0.00 0.00 0.00 66 1018.5
20260509020521 60 0.0 0.0 0.00 0.00 0.00 67 1018.5
20260509015521 61 0.0 0.0 0.00 0.00 0.00 66 1018.5
20260509014520 61 0.0 0.0 0.00 0.00 0.00 65 1018.4
20260509013541 61 0.0 0.0 0.00 0.00 0.00 65 1018.4
20260509012521 61 0.0 0.0 0.00 0.00 0.00 63 1018.3
20260509011521 62 0.0 0.0 0.00 0.00 0.00 63 1018.0
20260509010520 62 0.0 0.0 0.00 0.00 0.00 61 1018.0
20260509005541 63 0.0 0.0 0.00 0.00 0.00 59 1017.7
20260509004601 63 0.0 0.0 0.00 0.00 0.00 60 1017.5
20260509003520 64 0.0 0.0 0.00 0.00 0.00 56 1017.5
20260509002520 64 0.0 0.0 0.00 0.00 0.00 55 1017.4
20260509001522 65 0.0 0.0 0.00 0.00 0.00 54 1017.4
20260509000521 66 0.0 0.0 0.00 0.00 0.00 54 1017.4
20260508235520 67 0.0 0.0 0.00 0.00 0.00 51 1017.6
20260508234520 68 0.0 0.0 0.00 0.00 0.00 51 1017.4
20260508233542 68 0.0 1.0 0.00 0.00 0.00 48 1017.4
20260508232522 69 0.0 1.0 0.00 0.00 0.00 47 1017.2
20260508230520 70 0.0 2.0 0.00 0.02 0.00 45 1017.1
20260508225520 70 0.0 2.0 0.00 0.02 0.00 44 1017.2
20260508224526 70 45 1.0 7.0 0.00 0.02 0.00 44 1017.3
20260508223522 70 0.0 5.0 0.00 0.02 0.00 43 1017.2
20260508222520 70 45 1.0 4.0 0.00 0.02 0.00 43 1017.0
20260508221541 71 0.0 3.0 0.00 0.02 0.00 42 1017.0
20260508220522 71 0.0 2.0 0.00 0.02 0.00 42 1017.2
20260508215522 71 0.0 3.0 0.00 0.02 0.00 41 1017.2
20260508214622 71 45 1.0 6.0 0.00 0.02 0.00 37 1016.9
20260508213520 71 0.0 3.0 0.00 0.02 0.00 37 1017.0
20260508212522 72 0.0 1.0 0.00 0.02 0.00 39 1017.1
20260508211522 72 0.0 3.0 0.00 0.02 0.00 38 1017.1
20260508210522 73 45 1.0 3.0 0.00 0.02 0.00 34 1017.2
20260508205542 73 0.0 3.0 0.00 0.02 0.00 35 1017.6
20260508204522 74 68 1.0 4.0 0.00 0.02 0.00 35 1017.8
20260508203522 75 45 1.0 5.0 0.00 0.02 0.00 39 1017.9
20260508202522 75 0.0 3.0 0.00 0.02 0.00 39 1017.8
20260508201522 75 68 1.0 4.0 0.00 0.02 0.00 38 1017.8
20260508200542 74 45 1.0 5.0 0.00 0.02 0.00 37 1017.6
20260508195522 75 0.0 2.0 0.00 0.02 0.00 38 1017.9
20260508194521 74 0.0 2.0 0.00 0.02 0.00 37 1018.0
20260508193522 74 90 1.0 4.0 0.00 0.02 0.00 38 1018.2
20260508192522 75 45 1.0 4.0 0.00 0.02 0.00 35 1018.1
20260508191542 74 0.0 2.0 0.00 0.02 0.00 37 1018.5
20260508190522 74 45 1.0 6.0 0.00 0.02 0.00 35 1018.6
20260508185522 75 68 1.0 3.0 0.00 0.02 0.00 37 1018.7
20260508184522 75 0.0 2.0 0.00 0.02 0.00 38 1018.9
20260508183522 76 0.0 5.0 0.00 0.02 0.00 38 1019.1
20260508182522 76 0.0 2.0 0.00 0.02 0.00 37 1019.2
20260508181522 75 293 1.0 4.0 0.00 0.02 0.00 34 1019.3
20260508180522 75 0.0 1.0 0.00 0.02 0.00 38 1019.5
20260508175521 74 0.0 1.0 0.00 0.02 0.00 36 1019.6
20260508174522 73 0.0 2.0 0.00 0.02 0.00 37 1019.6
20260508173522 73 68 1.0 9.0 0.00 0.02 0.00 37 1019.7
20260508172522 73 0.0 3.0 0.00 0.02 0.00 38 1019.6